Voltar ao catálogo

OPS 0252

AtivoMilitarLEO
NORAD 13791·PAYLOAD·🇺🇸 United States

Lançado Feb 9, 1983 de Vandenberg Space Force Base

Loading…

Próximas Passagens (próximas 24 horas)

TLE

AtualizadoSource: Space-Track

Época: Sep 14, 2026, 15:35 UTC

1 13791U 83008A   26257.64950850  .00003728  00000-0  50273-3 0  9999
2 13791  63.3113  40.4750 0669462 138.0549 227.3831 13.87752093118701

Acompanhe OPS 0252 em tempo real com AllMySat

Download on the App Store